[[{"header":{"parameterUnit":"m.s-1","parameterCategory":1,"la1":30.2991,"la2":30.254,"lo1":-89.0895,"lo2":-89.0444,"dy":0.0017,"dx":0.0017,"nx":28,"ny":28,"refTime":"2024-11-27T09:00:00:Z","depth":0,"parameterNumber":2,"parameterNumberName":"U-component_of_WINDS"},"data":[0,0,0,0,0,0,0,0,0,0,0,0,0,0,0,0,0,0,0,0,0,0,0,0,0,0,0,0,0,0,0,0,0,0,0,0,0,0,0,0,0,0,0,0,0,0,0,0,0,0,0,0,0,0,0,0,0,0,0.474,0.474,0,0.4702,0.4702,0.4702,0.4694,0.4694,0.4695,0.4695,0.4654,0.4653,0.4651,0,0,0,0,0,0,0,0,0,0,0,0,0,0.4805,0.4803,0.474,0.474,0.4739,0.4703,0.4702,0.4701,0.4694,0.4694,0.4695,0.4695,0.4654,0.4653,0.4651,0,0,0,0,0,0,0,0,0,0,0,0,0,0.4773,0.4803,0.474,0.4731,0.473,0.4703,0.4702,0.4701,0.4694,0.4694,0.4695,0.4695,0.4655,0.4653,0.4651,0.4629,0,0,0.4645,0.4644,0,0,0,0,0,0,0,0,0.4774,0.477,0.4733,0.4732,0.473,0.4703,0.471,0.4677,0.4694,0.4707,0.4695,0.4695,0.467,0.4667,0.4659,0.4627,0.4626,0.4645,0.4643,0.4642,0.4642,0,0,0,0,0,0,0,0.4777,0.4772,0.4725,0.4732,0.4731,0.4729,0.4724,0.4703,0.4687,0.4706,0.4706,0.4701,0.4669,0.4661,0.4658,0.4625,0.4645,0.4643,0.4641,0.4641,0.4576,0.4575,0,0,0,0,0,0,0.4781,0.4774,0.4726,0.4724,0.4754,0.4727,0.4723,0.4712,0.4687,0.4684,0.4701,0.4701,0.4664,0.466,0.4656,0.463,0.4642,0.464,0.4639,0.4576,0.4576,0.4575,0,0,0,0,0,0,0.4782,0.4777,0.4728,0.4749,0.4742,0.4725,0.4713,0.4711,0.4702,0.4683,0.468,0.4695,0.4664,0.4659,0.4637,0.4628,0.464,0.4638,0.4577,0.4576,0.4575,0.4576,0,0,0,0,0,0,0.4784,0.4777,0.4769,0.4749,0.4741,0.4709,0.4713,0.471,0.4699,0.4698,0.4677,0.4673,0.4664,0.464,0.4635,0.4626,0.4636,0.4577,0.4576,0.4576,0.4577,0.4576,0.4575,0,0,0,0,0,0.4786,0.477,0.4768,0.4763,0.4731,0.4709,0.4704,0.4695,0.4698,0.4689,0.4678,0.4674,0.463,0.4637,0.4632,0.4622,0.4578,0.4577,0.4576,0.4578,0.4576,0.4575,0,0,0,0,0,0,0.4788,0.4767,0.4765,0.4742,0.4727,0.4707,0.4696,0.4693,0.4677,0.4677,0.4665,0.466,0.4638,0.4628,0.4636,0.46,0.4604,0.4602,0.4608,0.4606,0.4605,0.4608,0.4634,0,0,0,0,0,0.4786,0.4771,0.4753,0.4734,0.4727,0.4713,0.4703,0.4697,0.4681,0.4674,0.4661,0.4645,0.4628,0.4617,0.46,0.4576,0.4571,0.4567,0.4566,0.4565,0.4562,0.455,0.4548,0.4571,0.4571,0.4571,0,0,0.4781,0.4768,0.4758,0.4734,0.4722,0.4706,0.4708,0.469,0.4678,0.4671,0.465,0.464,0.4621,0.4598,0.4588,0.4589,0.4555,0.4563,0.4563,0.4561,0.4549,0.4546,0.4545,0.4571,0.4571,0.4571,0,0,0.4764,0.4752,0.4735,0.4724,0.4706,0.4698,0.4694,0.4675,0.4668,0.4647,0.4642,0.4627,0.4597,0.4585,0.4575,0.4555,0.4551,0.455,0.4543,0.4531,0.4529,0.4528,0.4521,0.4518,0.4548,0.4548,0.4548,0,0.4759,0.4735,0.4727,0.471,0.47,0.4695,0.4678,0.4667,0.4644,0.4637,0.4639,0.4603,0.459,0.4565,0.4561,0.4552,0.4548,0.4551,0.4531,0.4529,0.4527,0.452,0.4518,0.4548,0.4548,0.4548,0.4548,0,0.4731,0.4715,0.4703,0.4683,0.4672,0.4655,0.4644,0.4633,0.4629,0.462,0.4598,0.4583,0.4563,0.4557,0.4552,0.4531,0.4533,0.4533,0.4537,0.4525,0.4518,0.4516,0.4548,0.4548,0.4548,0.4548,0,0,0.4712,0.4689,0.4685,0.4676,0.4657,0.4644,0.4628,0.461,0.4601,0.4586,0.4571,0.4548,0.4548,0.4537,0.453,0.452,0.4506,0.4522,0.4521,0.4519,0.4483,0.4482,0.4479,0.4504,0.4504,0.4503,0.4484,0,0.4692,0.4663,0.4656,0.463,0.4615,0.4612,0.4597,0.4584,0.4576,0.4562,0.4552,0.4536,0.4538,0.4531,0.4521,0.451,0.4498,0.4511,0.449,0.449,0.4494,0.4476,0.4475,0.4457,0.4482,0.4481,0.4481,0,0.4664,0.465,0.4624,0.4609,0.4602,0.4589,0.4573,0.4559,0.4545,0.454,0.4528,0.4523,0.4506,0.4512,0.4488,0.4497,0.4488,0.4482,0.4481,0.4477,0.4484,0.4472,0.4452,0.4449,0.4477,0.4477,0.4477,0,0.4653,0.4628,0.4609,0.4601,0.4583,0.4574,0.4566,0.4552,0.4542,0.4528,0.4521,0.4505,0.4495,0.4483,0.4474,0.4479,0.4451,0.4456,0.4446,0.4446,0.4439,0.4439,0.4417,0.4435,0.4435,0.4435,0.4435,0,0.4631,0.4615,0.4603,0.4592,0.4574,0.4566,0.4549,0.454,0.4528,0.4515,0.4511,0.4498,0.4488,0.4474,0.4467,0.4448,0.4444,0.4439,0.4437,0.4439,0.444,0.4432,0.4433,0.4434,0.4434,0.4434,0.4434,0,0.4614,0.4606,0.4585,0.457,0.4566,0.4554,0.4541,0.4529,0.4522,0.4505,0.4501,0.4489,0.4472,0.4463,0.4442,0.4437,0.4416,0.4415,0.4421,0.442,0.4411,0.4412,0.4382,0.4378,0.44,0.4399,0.4399,0,0.46,0.4588,0.4572,0.4564,0.4556,0.4541,0.4532,0.4524,0.4514,0.4498,0.4489,0.4472,0.4459,0.4433,0.4422,0.4406,0.4404,0.4395,0.4402,0.4404,0.4404,0.4404,0.4403,0.4394,0.4393,0.4393,0.4393,0,0.4577,0.4574,0.456,0.4546,0.4535,0.4522,0.451,0.4503,0.4494,0.4483,0.4467,0.4457,0.4436,0.442,0.4404,0.4395,0.4392,0.4392,0.4388,0.4389,0.4393,0.4391,0.4418,0.4392,0.4392,0.4392,0.4392,0.4392,0.456,0.455,0.4538,0.4523,0.4514,0.4503,0.4492,0.4484,0.447,0.4454,0.445,0.4433,0.442,0.4399,0.439,0.4376,0.4378,0.4373,0.4372,0.4371,0.437,0.4397,0.4373,0.4373,0.4373,0.4373,0.4374,0,0.4536,0.4529,0.4515,0.45,0.4488,0.4489,0.4476,0.4466,0.4452,0.444,0.4428,0.4409,0.4394,0.4383,0.4368,0.4359,0.4358,0.4355,0.4356,0.4354,0.437,0.4374,0.4357,0.4357,0.4357,0.4357,0.4357,0.4357,0.4522,0.4504,0.45,0.4478,0.447,0.4454,0.4447,0.4438,0.4429,0.4409,0.4397,0.439,0.4379,0.4363,0.4349,0.4347,0.4341,0.4339,0.4336,0.4351,0.4352,0.4354,0.4358,0.4338,0.4338,0.432,0.432,0.432]},{"header":{"parameterUnit":"m.s-1","parameterCategory":1,"la1":30.2991,"la2":30.254,"lo1":-89.0895,"lo2":-89.0444,"dy":0.0017,"dx":0.0017,"nx":28,"ny":28,"refTime":"2024-11-27T09:00:00:Z","depth":0,"parameterNumber":3,"parameterNumberName":"V-component_of_WINDS"},"data":[0,0,0,0,0,0,0,0,0,0,0,0,0,0,0,0,0,0,0,0,0,0,0,0,0,0,0,0,0,0,0,0,0,0,0,0,0,0,0,0,0,0,0,0,0,0,0,0,0,0,0,0,0,0,0,0,0,0,-7.103,-7.1032,0,-7.1176,-7.1178,-7.1179,-7.1142,-7.114,-7.1137,-7.1134,-7.1276,-7.1282,-7.1288,0,0,0,0,0,0,0,0,0,0,0,0,0,-7.0713,-7.0719,-7.103,-7.1032,-7.1034,-7.1176,-7.1178,-7.118,-7.1143,-7.1139,-7.1136,-7.1133,-7.1274,-7.1281,-7.1289,0,0,0,0,0,0,0,0,0,0,0,0,0,-7.0854,-7.0721,-7.1029,-7.1032,-7.1034,-7.1175,-7.1178,-7.118,-7.1144,-7.1139,-7.1135,-7.1131,-7.1271,-7.128,-7.129,-7.1435,0,0,-7.1319,-7.1323,0,0,0,0,0,0,0,0,-7.0846,-7.0865,-7.103,-7.1033,-7.1035,-7.1137,-7.1118,-7.1265,-7.1145,-7.1102,-7.1134,-7.1129,-7.1232,-7.1245,-7.1281,-7.1441,-7.1447,-7.132,-7.1326,-7.133,-7.1333,0,0,0,0,0,0,0,-7.0836,-7.0859,-7.1087,-7.1033,-7.1035,-7.1024,-7.104,-7.1146,-7.1189,-7.1105,-7.1103,-7.1121,-7.1233,-7.1272,-7.1284,-7.1449,-7.132,-7.1328,-7.1334,-7.1338,-7.1737,-7.1742,0,0,0,0,0,0,-7.0825,-7.0851,-7.1083,-7.1092,-7.0928,-7.1034,-7.1051,-7.1108,-7.1188,-7.1196,-7.1125,-7.1119,-7.1258,-7.1273,-7.1289,-7.1466,-7.133,-7.1339,-7.1345,-7.1732,-7.1738,-7.1744,0,0,0,0,0,0,-7.0819,-7.0846,-7.1077,-7.0971,-7.0999,-7.1044,-7.1108,-7.1113,-7.1153,-7.1203,-7.1209,-7.1158,-7.1255,-7.1276,-7.14,-7.147,-7.1343,-7.1352,-7.1727,-7.1734,-7.1741,-7.1819,0,0,0,0,0,0,-7.081,-7.0844,-7.0901,-7.0973,-7.1005,-7.1187,-7.1113,-7.1119,-7.1171,-7.1165,-7.1235,-7.1243,-7.1253,-7.1386,-7.1409,-7.1481,-7.136,-7.1721,-7.173,-7.1739,-7.181,-7.1828,-7.1843,0,0,0,0,0,-7.0799,-7.0915,-7.0904,-7.0932,-7.1078,-7.1191,-7.121,-7.1222,-7.1176,-7.1233,-7.1265,-7.1241,-7.1459,-7.1399,-7.1425,-7.1501,-7.1716,-7.1727,-7.1738,-7.1803,-7.1824,-7.1843,0,0,0,0,0,0,-7.0847,-7.0924,-7.0913,-7.1056,-7.1118,-7.1185,-7.1257,-7.1244,-7.1317,-7.1308,-7.1318,-7.1334,-7.1461,-7.1493,-7.1425,-7.1646,-7.1581,-7.1597,-7.1621,-7.1642,-7.1658,-7.1648,-7.1368,0,0,0,0,0,-7.0875,-7.0963,-7.1025,-7.1145,-7.1177,-7.1212,-7.1262,-7.1266,-7.1329,-7.1354,-7.1395,-7.1455,-7.1537,-7.1591,-7.1669,-7.1815,-7.183,-7.188,-7.1896,-7.1909,-7.1923,-7.2004,-7.2028,-7.1779,-7.1779,-7.1779,0,0,-7.0932,-7.0985,-7.1039,-7.1156,-7.1204,-7.1294,-7.1234,-7.133,-7.1397,-7.1368,-7.1489,-7.1521,-7.1589,-7.1725,-7.1787,-7.1755,-7.1996,-7.1923,-7.1933,-7.194,-7.2018,-7.2041,-7.2062,-7.1787,-7.1785,-7.1784,0,0,-7.1083,-7.1132,-7.1239,-7.129,-7.1365,-7.1388,-7.1414,-7.1483,-7.1505,-7.1627,-7.1608,-7.1686,-7.1827,-7.1877,-7.192,-7.2093,-7.2073,-7.2118,-7.2203,-7.2282,-7.2302,-7.2319,-7.2382,-7.2404,-7.2132,-7.2132,-7.2132,0,-7.1144,-7.1281,-7.1294,-7.1395,-7.1447,-7.1429,-7.1537,-7.1584,-7.1679,-7.1715,-7.1679,-7.1858,-7.1901,-7.205,-7.2093,-7.2128,-7.2157,-7.211,-7.2298,-7.2316,-7.2332,-7.2392,-7.2416,-7.2137,-7.2136,-7.2136,-7.2135,0,-7.1353,-7.1448,-7.1525,-7.1623,-7.1683,-7.1786,-7.1814,-7.1873,-7.1873,-7.1899,-7.2024,-7.2077,-7.2167,-7.2202,-7.2201,-7.2351,-7.2329,-7.2296,-7.223,-7.2361,-7.2418,-7.2441,-7.2144,-7.2143,-7.2141,-7.214,0,0,-7.1537,-7.1643,-7.1671,-7.1716,-7.1799,-7.1872,-7.1974,-7.2065,-7.2117,-7.2183,-7.2269,-7.239,-7.2361,-7.2411,-7.2415,-7.2484,-7.262,-7.2442,-7.2444,-7.2474,-7.279,-7.2815,-7.2842,-7.2607,-7.2611,-7.2615,-7.2784,0,-7.1696,-7.188,-7.1897,-7.2061,-7.215,-7.2135,-7.2224,-7.2283,-7.2311,-7.2389,-7.2417,-7.2504,-7.2458,-7.2488,-7.2556,-7.2589,-7.2683,-7.2577,-7.2686,-7.269,-7.2671,-7.2871,-7.2898,-7.3056,-7.2806,-7.281,-7.2813,0,-7.1906,-7.1984,-7.2159,-7.2232,-7.227,-7.235,-7.2436,-7.2511,-7.2578,-7.2593,-7.265,-7.2646,-7.275,-7.2681,-7.2824,-7.2752,-7.2797,-7.282,-7.2826,-7.2838,-7.276,-7.2889,-7.3106,-7.313,-7.2848,-7.2845,-7.2842,0,-7.2025,-7.2173,-7.2297,-7.2336,-7.2424,-7.2481,-7.252,-7.2583,-7.2637,-7.2711,-7.2747,-7.2831,-7.2877,-7.2941,-7.2959,-7.2907,-7.3103,-7.3034,-7.3117,-7.3117,-7.316,-7.3157,-7.3389,-7.3187,-7.3187,-7.3187,-7.3186,0,-7.2202,-7.231,-7.2353,-7.2429,-7.2549,-7.2566,-7.2684,-7.2719,-7.2776,-7.2858,-7.2848,-7.2924,-7.2943,-7.3023,-7.3037,-7.3155,-7.3175,-7.3189,-7.3192,-7.3191,-7.319,-7.3222,-7.3212,-7.3193,-7.3192,-7.319,-7.3189,0,-7.2355,-7.2388,-7.2523,-7.2597,-7.2618,-7.2703,-7.2765,-7.2838,-7.2865,-7.2969,-7.2994,-7.3036,-7.3129,-7.3154,-7.3264,-7.3274,-7.3413,-7.3405,-7.3392,-7.3392,-7.3474,-7.3467,-7.3735,-7.3772,-7.3546,-7.3548,-7.3549,0,-7.2466,-7.255,-7.2634,-7.269,-7.2732,-7.2822,-7.2879,-7.2899,-7.2958,-7.3042,-7.3105,-7.3198,-7.3274,-7.3424,-7.3462,-7.3547,-7.3541,-7.363,-7.3554,-7.3551,-7.3544,-7.354,-7.3549,-7.3644,-7.3647,-7.3649,-7.365,0,-7.2661,-7.2674,-7.2758,-7.2849,-7.2918,-7.2989,-7.3057,-7.3103,-7.3132,-7.3199,-7.3297,-7.3356,-7.3471,-7.3564,-7.365,-7.3687,-7.3674,-7.3674,-7.3698,-7.3698,-7.3688,-7.3696,-7.3432,-7.3668,-7.3666,-7.3665,-7.3664,-7.3663,-7.2797,-7.2872,-7.2944,-7.3038,-7.3092,-7.3157,-7.3231,-7.3269,-7.3351,-7.345,-7.3455,-7.3562,-7.3627,-7.3743,-7.3785,-7.3867,-7.384,-7.3875,-7.3884,-7.3892,-7.39,-7.3675,-7.3883,-7.3882,-7.3882,-7.3881,-7.3881,0,-7.2993,-7.3039,-7.3126,-7.3224,-7.3299,-7.3283,-7.3358,-7.342,-7.3515,-7.358,-7.3656,-7.3768,-7.3859,-7.3906,-7.3995,-7.4052,-7.4048,-7.4075,-7.4071,-7.408,-7.3918,-7.3889,-7.4077,-7.4077,-7.4077,-7.4077,-7.4077,-7.4076,-7.3103,-7.3229,-7.3251,-7.3404,-7.3448,-7.3555,-7.36,-7.3659,-7.3711,-7.3839,-7.3916,-7.3947,-7.4004,-7.4098,-7.418,-7.4191,-7.4225,-7.4256,-7.4264,-7.4111,-7.4091,-7.4072,-7.4045,-7.4262,-7.4263,-7.4419,-7.4421,-7.4422]}]]